DW9527 Weather Reports


time (UTC)temp
C
wind
direction
speed
KPH
gust
KPH
rain 1hr
cm
rain 24hr
cm
rain mn
cm
humidity
%
barometer
mb
20260510180205 17 58 9.7 27.4 0.03 0.48 0.48 42 1022.2
20260510175705 17 42 16.1 27.4 0.03 0.48 0.48 41 1022.2
20260510175204 17 28 8.0 24.1 0.03 0.48 0.48 45 1022.3
20260510174705 17 36 12.9 25.7 0.03 0.48 0.48 42 1022.3
20260510174204 17 52 9.7 25.7 0.03 0.48 0.48 43 1022.2
20260510173705 16 76 11.3 24.1 0.03 0.48 0.48 42 1022.2
20260510173205 16 55 9.7 22.5 0.03 0.48 0.48 44 1022.2
20260510172205 16 53 9.7 27.4 0.03 0.48 0.48 45 1022.3
20260510171705 16 37 16.1 27.4 0.03 0.48 0.48 45 1022.3
20260510171205 16 59 11.3 24.1 0.00 0.46 0.46 46 1022.2
20260510170705 16 42 9.7 24.1 0.00 0.46 0.46 48 1022.2
20260510170205 16 49 9.7 24.1 0.00 0.46 0.46 50 1022.2
20260510165705 16 49 14.5 25.7 0.00 0.46 0.46 49 1022.2
20260510165205 15 36 11.3 25.7 0.00 0.46 0.46 53 1022.3
20260510164705 15 44 8.0 22.5 0.00 0.46 0.46 57 1022.4
20260510164205 15 36 9.7 22.5 0.00 0.46 0.46 56 1022.3
20260510163705 15 46 9.7 19.3 0.00 0.46 0.46 59 1022.2
20260510163205 14 45 4.8 19.3 0.00 0.46 0.46 62 1022.2
20260510162705 13 34 8.0 16.1 0.00 0.46 0.46 64 1022.3
20260510162206 13 34 8.0 16.1 0.00 0.46 0.46 66 1022.4
20260510161705 13 28 6.4 19.3 0.00 0.46 0.46 68 1022.4
20260510161205 12 68 4.8 19.3 0.00 0.46 0.46 69 1022.3
20260510160705 12 65 9.7 24.1 0.00 0.46 0.46 70 1022.2
20260510155704 11 36 8.0 22.5 0.00 0.46 0.46 78 1022.2
20260510155205 11 44 8.0 22.5 0.00 0.46 0.46 81 1022.0
20260510154704 11 5 8.0 14.5 0.00 0.46 0.46 82 1022.0
20260510154205 11 3 8.0 14.5 0.03 0.46 0.46 81 1022.0
20260510153705 11 38 8.0 22.5 0.03 0.46 0.46 81 1021.9
20260510153205 11 355 9.7 22.5 0.03 0.46 0.46 80 1022.0
20260510152205 11 68 11.3 24.1 0.03 0.46 0.46 78 1021.0
20260510151705 11 77 9.7 19.3 0.03 0.46 0.46 80 1021.0
20260510150705 11 72 8.0 19.3 0.03 0.46 0.46 81 1021.4
20260510145705 11 53 6.4 16.1 0.03 0.46 0.46 81 1021.8
20260510145205 11 33 8.0 16.1 0.03 0.46 0.46 81 1021.8
20260510144205 11 53 8.0 19.3 0.00 0.43 0.43 80 1021.4
20260510143705 11 69 9.7 24.1 0.00 0.43 0.43 80 1021.4
20260510143204 11 99 8.0 24.1 0.03 0.43 0.43 81 1021.6
20260510142205 11 64 11.3 24.1 0.03 0.43 0.43 83 1021.7
20260510141706 11 54 6.4 22.5 0.05 0.43 0.43 84 1021.9
20260510141204 11 57 6.4 14.5 0.10 0.43 0.43 84 1022.0
20260510140705 11 43 4.8 14.5 0.13 0.43 0.43 85 1021.9
20260510140205 11 45 8.0 14.5 0.15 0.43 0.43 85 1021.9
20260510135705 11 35 6.4 14.5 0.20 0.43 0.43 85 1021.9
20260510135205 11 49 6.4 14.5 0.25 0.43 0.43 85 1021.5
20260510134705 11 58 6.4 14.5 0.30 0.43 0.43 85 1021.5
20260510134205 11 70 4.8 14.5 0.36 0.43 0.43 84 1021.5
20260510133705 11 64 3.2 9.7 0.41 0.43 0.43 84 1021.6
20260510132705 11 62 4.8 19.3 0.36 0.41 0.41 83 1021.6
20260510132205 11 80 9.7 19.3 0.41 0.41 0.41 83 1021.4
20260510131705 11 39 8.0 12.9 0.36 0.36 0.36 83 1021.6
20260510131205 11 38 4.8 11.3 0.33 0.33 0.33 82 1021.6
20260510130705 11 9 4.8 11.3 0.30 0.30 0.30 81 1021.6
20260510130204 12 355 1.6 9.7 0.28 0.28 0.28 80 1021.6
20260510125705 12 44 3.2 9.7 0.20 0.20 0.20 77 1021.3
20260510125205 12 48 1.6 11.3 0.18 0.18 0.18 76 1021.2
20260510124704 12 48 3.2 14.5 0.13 0.13 0.13 73 1021.0
20260510123705 13 14 3.2 16.1 0.03 0.03 0.03 71 1021.0
20260510123205 13 70 6.4 16.1 0.03 0.03 0.03 68 1020.4
20260510122704 13 90 3.2 11.3 0.03 0.03 0.03 66 1020.1
20260510121704 13 66 1.6 14.5 0.00 0.00 0.00 65 1020.0
20260510121204 14 32 4.8 19.3 0.00 0.00 0.00 63 1019.8
20260510120705 14 49 8.0 24.1 0.00 0.00 0.00 62 1019.4
20260510120205 14 33 8.0 24.1 0.00 0.00 0.00 62 1019.0
20260510115705 14 47 11.3 22.5 0.00 0.00 0.00 61 1018.7
20260510115205 14 60 8.0 19.3 0.00 0.00 0.00 61 1018.6
20260510114704 14 21 6.4 25.7 0.00 0.00 0.00 61 1018.3
20260510114204 14 76 9.7 25.7 0.00 0.00 0.00 62 1018.0
20260510113705 14 44 11.3 25.7 0.00 0.00 0.00 62 1017.6
20260510112705 14 61 9.7 27.4 0.00 0.00 0.00 63 1017.3
20260510112205 14 21 12.9 27.4 0.00 0.00 0.00 63 1017.1
20260510111705 14 34 11.3 24.1 0.00 0.00 0.00 63 1016.9
20260510111205 14 39 8.0 32.2 0.00 0.00 0.00 63 1016.9
20260510110705 14 23 11.3 32.2 0.00 0.00 0.00 63 1016.8
20260510110205 14 32 17.7 32.2 0.00 0.00 0.00 62 1016.8
20260510105705 14 33 14.5 29.0 0.00 0.00 0.00 62 1016.8
20260510105204 15 15 11.3 25.7 0.00 0.00 0.00 62 1016.5
20260510104704 15 33 11.3 25.7 0.00 0.00 0.00 61 1016.6
20260510104205 15 42 11.3 24.1 0.00 0.00 0.00 61 1016.7
20260510103705 15 49 9.7 24.1 0.00 0.00 0.00 60 1016.7
20260510103205 15 15 11.3 32.2 0.00 0.00 0.00 59 1016.6
20260510102204 15 23 14.5 29.0 0.00 0.00 0.00 59 1016.2
20260510101704 15 31 14.5 35.4 0.00 0.00 0.00 60 1016.1
20260510101205 15 33 14.5 35.4 0.00 0.00 0.00 60 1016.2
20260510100836 15 24 14.5 35.4 0.00 0.00 0.00 60 1016.0
20260510100207 15 28 14.5 27.4 0.00 0.00 0.00 60 1016.0
20260510095741 15 42 12.9 27.4 0.00 0.00 0.00 61 1016.0
20260510095205 15 34 11.3 24.1 0.00 0.00 0.00 61 1016.0
20260510094705 15 16 11.3 24.1 0.00 0.00 0.00 62 1015.9
20260510094204 15 31 9.7 22.5 0.00 0.00 0.00 62 1015.7
20260510093704 15 36 9.7 25.7 0.00 0.00 0.00 62 1015.8
20260510093204 15 26 12.9 25.7 0.00 0.00 0.00 62 1015.5
20260510092205 15 43 9.7 24.1 0.00 0.00 0.00 62 1015.1
20260510091704 15 37 9.7 24.1 0.00 0.00 0.00 62 1015.2
20260510091205 15 21 12.9 24.1 0.00 0.00 0.00 62 1015.3
20260510090704 15 26 11.3 24.1 0.00 0.00 0.00 62 1015.3
20260510090204 15 47 11.3 29.0 0.00 0.00 0.00 62 1015.3
20260510085705 15 20 14.5 29.0 0.00 0.00 0.00 62 1015.3
20260510084205 15 26 8.0 24.1 0.00 0.00 0.00 63 1015.3
20260510083705 15 25 9.7 24.1 0.00 0.00 0.00 63 1015.3
20260510083204 15 43 9.7 24.1 0.00 0.00 0.00 63 1015.2
20260510082205 15 50 9.7 16.1 0.00 0.00 0.00 63 1015.0
20260510081205 15 24 11.3 19.3 0.00 0.00 0.00 63 1015.2
20260510080705 15 33 8.0 19.3 0.00 0.00 0.00 64 1015.1
20260510080205 15 36 9.7 19.3 0.00 0.00 0.00 63 1015.0
20260510075704 16 30 8.0 19.3 0.00 0.00 0.00 63 1015.0
20260510075204 16 28 6.4 14.5 0.00 0.00 0.00 63 1014.8
20260510074705 16 37 4.8 19.3 0.00 0.00 0.00 62 1014.8
20260510074205 16 31 4.8 19.3 0.00 0.00 0.00 62 1014.7
20260510073205 16 33 8.0 12.9 0.00 0.00 0.00 61 1014.5
20260510072704 16 20 6.4 14.5 0.00 0.00 0.00 60 1014.6
20260510072204 16 40 4.8 14.5 0.00 0.00 0.00 60 1014.7
20260510071704 16 22 8.0 14.5 0.00 0.00 0.00 59 1014.6
20260510070704 17 39 4.8 11.3 0.00 0.00 0.00 59 1014.6
20260510065204 17 79 3.2 9.7 0.00 0.00 0.00 59 1014.4
20260510064704 17 92 3.2 9.7 0.00 0.00 0.00 59 1014.3
20260510064205 17 103 3.2 11.3 0.00 0.00 0.00 59 1014.3
20260510063705 17 66 4.8 12.9 0.00 0.00 0.00 59 1014.2
20260510063204 17 45 3.2 12.9 0.00 0.00 0.00 60 1014.1
20260510062704 17 33 4.8 12.9 0.00 0.00 0.00 59 1014.0
20260510061704 17 30 4.8 11.3 0.00 0.00 0.00 58 1014.1
20260510061204 17 25 4.8 16.1 0.00 0.00 0.00 58 1014.1
20260510060704 17 28 4.8 16.1 0.00 0.00 0.00 58 1014.0
20260510060205 17 44 4.8 9.7 0.00 0.00 0.00 58 1013.7
20260510055705 17 48 3.2 9.7 0.00 0.00 0.00 58 1013.5
20260510055205 18 52 3.2 9.7 0.00 0.00 0.00 58 1013.6
20260510054705 18 46 1.6 9.7 0.00 0.00 0.00 58 1013.6
20260510054205 18 40 4.8 11.3 0.00 0.00 0.00 57 1013.5
20260510053704 18 40 4.8 16.1 0.00 0.00 0.00 57 1013.3
20260510053204 18 67 4.8 16.1 0.00 0.00 0.00 56 1013.2
20260510052704 18 35 8.0 16.1 0.00 0.00 0.00 55 1013.1
20260510051705 18 24 6.4 14.5 0.00 0.00 0.00 55 1013.0
20260510051204 18 21 8.0 14.5 0.00 0.00 0.00 55 1013.1
20260510050705 18 48 4.8 12.9 0.00 0.00 0.00 54 1013.0
20260510050204 18 102 4.8 12.9 0.00 0.00 0.00 54 1012.8
20260510045704 18 61 6.4 12.9 0.00 0.00 0.00 54 1012.9
20260510045204 18 28 4.8 11.3 0.00 0.00 0.00 54 1012.9
20260510044705 18 35 4.8 9.7 0.00 0.00 0.00 54 1012.9
20260510044204 18 36 4.8 9.7 0.00 0.00 0.00 54 1012.7
20260510043704 18 33 3.2 11.3 0.00 0.00 0.00 54 1012.6
20260510043204 18 36 3.2 11.3 0.00 0.00 0.00 54 1012.7
20260510042705 19 71 1.6 4.8 0.00 0.00 0.00 54 1012.7
20260510041704 19 78 1.6 4.8 0.00 0.00 0.00 52 1012.9
20260510041205 19 77 1.6 4.8 0.00 0.00 0.00 52 1012.8
20260510040704 19 77 1.6 4.8 0.00 0.00 0.00 52 1012.9
20260510040204 19 77 1.6 11.3 0.00 0.00 0.00 52 1012.8
20260510035705 19 77 3.2 12.9 0.00 0.00 0.00 52 1012.7
20260510035205 19 81 4.8 12.9 0.00 0.00 0.00 52 1012.7
20260510034704 19 90 3.2 12.9 0.00 0.00 0.00 52 1012.4
20260510034205 19 96 4.8 12.9 0.00 0.00 0.00 52 1012.4
20260510033706 19 117 1.6 4.8 0.00 0.00 0.00 51 1012.5
20260510033204 19 117 1.6 3.2 0.00 0.00 0.00 51 1012.4
20260510032705 19 118 0.0 3.2 0.00 0.00 0.00 52 1012.2
20260510032205 20 118 0.0 3.2 0.00 0.00 0.00 52 1012.0
20260510031204 20 118 1.6 4.8 0.00 0.00 0.00 52 1012.1
20260510030705 20 119 1.6 9.7 0.00 0.00 0.00 52 1012.0
20260510025705 20 140 3.2 9.7 0.00 0.00 0.00 51 1011.9
20260510025205 20 148 3.2 9.7 0.00 0.00 0.00 50 1011.9
20260510024704 20 149 3.2 9.7 0.00 0.00 0.00 48 1012.0
20260510024205 20 150 4.8 19.3 0.00 0.00 0.00 48 1012.0
20260510023705 21 148 6.4 19.3 0.00 0.00 0.00 47 1011.8
20260510022705 21 146 11.3 19.3 0.00 0.00 0.00 44 1011.9
20260510022205 22 153 8.0 16.1 0.00 0.00 0.00 41 1012.0
20260510021705 21 132 1.6 11.3 0.00 0.00 0.00 42 1012.0
20260510021205 21 134 8.0 11.3 0.00 0.00 0.00 43 1011.8
20260510020705 22 9 1.6 9.7 0.00 0.00 0.00 44 1012.2
20260510015704 23 7 4.8 22.5 0.00 0.00 0.00 38 1012.4
20260510015205 24 117 1.6 22.5 0.00 0.00 0.00 33 1012.1
20260510014704 24 128 9.7 22.5 0.00 0.00 0.00 30 1011.7
20260510014205 24 350 0.0 12.9 0.00 0.00 0.00 29 1012.0
20260510013710 25 345 4.8 16.1 0.00 0.00 0.00 29 1012.3
20260510013206 25 265 8.0 16.1 0.00 0.00 0.00 29 1012.3
20260510012709 24 159 4.8 11.3 0.00 0.00 0.00 28 1012.1
20260510012212 25 129 0.0 1.6 0.00 0.00 0.00 30 1011.8
20260510011704 25 129 0.0 1.6 0.00 0.00 0.00 28 1011.5
20260510011205 25 129 0.0 3.2 0.00 0.00 0.00 26 1011.2
20260510010704 25 129 0.0 9.7 0.00 0.00 0.00 25 1010.9
20260510010204 26 130 1.6 9.7 0.00 0.00 0.00 25 1010.5
20260510005705 26 128 3.2 12.9 0.00 0.00 0.00 24 1010.2
20260510005204 26 119 1.6 12.9 0.00 0.00 0.00 23 1009.9
20260510004704 26 159 4.8 19.3 0.00 0.00 0.00 23 1009.7
20260510004204 26 135 4.8 19.3 0.00 0.00 0.00 22 1009.2
20260510003704 26 124 6.4 14.5 0.00 0.00 0.00 22 1008.9
20260510003204 26 145 4.8 16.1 0.00 0.00 0.00 22 1008.8
20260510002706 26 134 6.4 19.3 0.00 0.00 0.00 22 1008.7
20260510002205 26 150 8.0 19.3 0.00 0.00 0.00 21 1008.6
20260510001704 26 159 9.7 19.3 0.00 0.00 0.00 21 1008.5
20260510000732 27 158 9.7 22.5 0.00 0.00 0.00 20 1008.4
20260510000205 27 153 9.7 22.5 0.00 0.00 0.00 20 1008.4
20260509235705 27 151 11.3 22.5 0.00 0.00 0.00 20 1008.4
20260509235205 27 156 9.7 19.3 0.00 0.00 0.00 19 1008.4
20260509234704 28 155 8.0 22.5 0.00 0.00 0.00 18 1008.4
20260509234204 28 156 9.7 22.5 0.00 0.00 0.00 19 1008.3
20260509233704 28 160 9.7 22.5 0.00 0.00 0.00 20 1008.4
20260509233205 28 150 9.7 22.5 0.00 0.00 0.00 18 1008.5
20260509232704 28 130 9.7 22.5 0.00 0.00 0.00 17 1008.6
20260509232205 28 150 6.4 19.3 0.00 0.00 0.00 19 1008.6
20260509231704 28 152 11.3 24.1 0.00 0.00 0.00 17 1008.7
20260509230705 29 159 8.0 22.5 0.00 0.00 0.00 18 1008.7
20260509230205 28 127 9.7 22.5 0.00 0.00 0.00 17 1008.9
20260509225705 28 147 6.4 22.5 0.00 0.00 0.00 19 1008.9
20260509225205 28 159 9.7 24.1 0.00 0.00 0.00 18 1008.9
20260509224704 29 151 16.1 24.1 0.00 0.00 0.00 17 1008.9
20260509224205 29 156 11.3 22.5 0.00 0.00 0.00 17 1008.9
20260509223704 29 160 11.3 27.4 0.00 0.00 0.00 18 1008.9
20260509223205 28 154 9.7 27.4 0.00 0.00 0.00 20 1008.8
20260509222704 28 152 4.8 24.1 0.00 0.00 0.00 18 1008.8
20260509222204 29 147 6.4 16.1 0.00 0.00 0.00 18 1008.7
20260509221704 29 161 8.0 19.3 0.00 0.00 0.00 18 1008.8
20260509221205 29 172 6.4 27.4 0.00 0.00 0.00 20 1008.7
20260509220705 29 143 9.7 27.4 0.00 0.00 0.00 18 1008.7
20260509220204 29 141 8.0 24.1 0.00 0.00 0.00 19 1008.6
20260509214709 30 161 14.5 35.4 0.00 0.00 0.00 18 1008.6
20260509214204 29 138 11.3 27.4 0.00 0.00 0.00 18 1008.6
20260509212705 30 222 4.8 24.1 0.00 0.00 0.00 19 1008.7
20260509212205 29 150 8.0 24.1 0.00 0.00 0.00 18 1008.8
20260509211704 29 152 4.8 19.3 0.00 0.00 0.00 19 1008.9
20260509211205 29 150 4.8 25.7 0.00 0.00 0.00 17 1008.9
20260509210704 29 151 9.7 27.4 0.00 0.00 0.00 17 1009.1
20260509210205 29 148 11.3 29.0 0.00 0.00 0.00 18 1009.2
20260509205705 29 153 20.9 29.0 0.00 0.00 0.00 17 1009.2
20260509205204 30 159 8.0 25.7 0.00 0.00 0.00 19 1009.2
20260509204705 29 302 8.0 25.7 0.00 0.00 0.00 20 1009.3
20260509204205 30 186 11.3 22.5 0.00 0.00 0.00 19 1009.3
20260509203204 30 166 8.0 19.3 0.00 0.00 0.00 19 1009.4
20260509202705 30 128 6.4 19.3 0.00 0.00 0.00 20 1009.4
20260509202205 30 247 9.7 22.5 0.00 0.00 0.00 20 1009.5
20260509201705 30 215 11.3 22.5 0.00 0.00 0.00 18 1009.5
20260509201205 29 169 8.0 25.7 0.00 0.00 0.00 19 1009.6
20260509200705 30 202 9.7 25.7 0.00 0.00 0.00 21 1009.7
20260509200205 29 134 12.9 25.7 0.00 0.00 0.00 20 1009.8
20260509195705 30 242 11.3 24.1 0.00 0.00 0.00 20 1009.7
20260509194704 30 247 8.0 24.1 0.00 0.00 0.00 23 1009.9
20260509194204 29 292 8.0 22.5 0.00 0.00 0.00 21 1010.0
20260509193704 29 224 11.3 22.5 0.00 0.00 0.00 20 1010.1
20260509193205 28 229 8.0 19.3 0.00 0.00 0.00 20 1010.1
20260509192204 28 230 9.7 19.3 0.00 0.00 0.00 20 1010.2
20260509191704 28 155 11.3 19.3 0.00 0.00 0.00 18 1010.3
20260509191205 28 152 8.0 25.7 0.00 0.00 0.00 20 1010.3
20260509190205 28 233 4.8 22.5 0.00 0.00 0.00 21 1010.3
20260509185704 29 179 8.0 22.5 0.00 0.00 0.00 22 1010.3
20260509185204 29 304 11.3 19.3 0.00 0.00 0.00 24 1010.3
20260509184704 29 268 9.7 25.7 0.00 0.00 0.00 28 1010.4
20260509184205 29 265 11.3 25.7 0.00 0.00 0.00 24 1010.5
20260509183704 28 255 6.4 16.1 0.00 0.00 0.00 24 1010.7
20260509183204 28 250 4.8 29.0 0.00 0.00 0.00 28 1010.7
20260509182704 27 139 6.4 29.0 0.00 0.00 0.00 22 1010.8
20260509181704 28 301 6.4 22.5 0.00 0.00 0.00 27 1010.9
20260509181205 27 288 11.3 24.1 0.00 0.00 0.00 22 1011.0
20260509180704 28 263 14.5 27.4 0.00 0.00 0.00 23 1011.0